{"data":{"norad_id":67298,"epoch":"2026-05-25T04:44:19.983264Z","epoch_age_seconds":68463,"freshness":"FRESH","line1":"1 67298U 25313BC  26145.19745351  .00130344  00000+0  29282-2 0  9998","line2":"2 67298  97.3882 222.1347 0005948  92.9028 267.2900 15.42840973 19715","mean_motion":15.42840973,"eccentricity":0.0005948,"inclination_deg":97.3882,"raan_deg":222.1347,"arg_perigee_deg":92.9028,"mean_anomaly_deg":267.29,"bstar":0.0029282,"rev_number":1971,"period_min":93.334311520128,"perigee_km":433.67526514827,"apogee_km":441.78341974924,"semimajor_km":6815.8663424488,"source":"CELESTRAK","updated_at":"2026-05-25T13:38:06.885513Z"}}